Regional Weather Roundup
Issued by NWS

Home | Current Version | Previous Version | Graphics & Text | Print | Product List | Glossary On
Versions: 1 2 3 4 5 6 7 8 9 10 11 12 13 14 15 16 17 18 19 20 21 22 23 24 25 26 27
000
ASUS45 KBOI 242010
RWRID

IDAHO REGIONAL WEATHER ROUNDUP
NATIONAL WEATHER SERVICE BOISE ID
200 PM MDT TUE MAY 24 2016

NOTE: "FAIR" INDICATES FEW OR NO CLOUDS BELOW 12000 FEET
WITH NO SIGNIFICANT WEATHER AND/OR OBSTRUCTIONS TO VISIBILITY

IDZ012-014-242100-
SOUTHWEST IDAHO


CITY           SKY/WX    TMP DP  RH WIND       PRES   REMARKS
BOISE          MOSUNNY   69  36  29 NW13G20   29.83F
CALDWELL       MOSUNNY   70  37  29 W8        29.84F
MOUNTAIN HOME  PTSUNNY   71  39  31 NW9       29.82F
$$

IDZ016-017-242100-
SOUTHCENTRAL IDAHO


CITY           SKY/WX    TMP DP  RH WIND       PRES   REMARKS
BURLEY         PTSUNNY   60  41  49 S13G18    29.85S
JEROME         SUNNY     63  37  38 S9        29.86F
TWIN FALLS     MOSUNNY   62  38  40 SW9       29.87S
$$

IDZ019>023-242100-
SOUTHEAST IDAHO


CITY           SKY/WX    TMP DP  RH WIND       PRES   REMARKS
IDAHO FALLS    MOSUNNY   63  35  35 VRB5      29.85R
POCATELLO      PTSUNNY   62  37  39 VRB7      29.86R
REXBURG        SUNNY     63  33  32 S6        29.84F
$$

IDZ006-010-011-018-031-032-242100-
CENTRAL IDAHO MOUNTAINS


CITY           SKY/WX    TMP DP  RH WIND       PRES   REMARKS
MCCALL         PTSUNNY   57  28  33 W10       29.88S
HAILEY         PTSUNNY   57  37  47 SE9       29.89R
STANLEY          N/A     53  26  35 CALM      29.90S
SALMON         PTSUNNY   55  39  54 N12       29.87S
CHALLIS        CLOUDY    59  28  30 N5        29.85F
$$

IDZ002-004-006-007-026-242100-
NORTHERN IDAHO


CITY           SKY/WX    TMP DP  RH WIND       PRES   REMARKS
LEWISTON       CLOUDY    60  49  66 VRB7      29.93S
LOWELL           N/A     61  47  59 CALM      29.93S
COEUR D`ALENE  CLOUDY    55  46  71 S3        29.91S
MULLAN PASS    FOG       39  39 100 VRB5      29.94S VSB<1/4
$$




USA.gov is the U.S. government's official web portal to all federal, state and local government web resources and services.